Location: Maignaut
(43.8886°N, 0.4051°E)
Time: 17:06:29
(UTC+00:00)

Cosmos 2227 Rocket - Pass Details

Date: 27 February 2020
Orbit: 839 x 845 km, 71.0° (Epoch: 29 March)

Event Time Altitude Azimuth Distance (km) Brightness Sun altitude
Rises 19:57:58 0° 337° (NNW) 3,406 5.8 -24.9°
Reaches altitude 10° 20:00:28 10° 342° (NNW) 2,468 5.0 -25.3°
Enters shadow 20:05:33 57° 38° (NE) 993 2.3 -26.2°
